Wind_Speed
17 15 21 25 22 20 28 25 20 25 25 23 29 31 56 62 60 59 58 60 50 39 30 28 32 29 29 25 25 36 37 46
18 13 16 23 18 16 29 29 28 24 28 21 30 34 47 56 63 61 59 59 60 47 37 35 34 35 28 29 29 30 34 42
11 9 14 17 19 15 24 30 30 22 29 28 36 41 48 53 55 52 56 52 52 41 37 34 34 32 29 32 34 36 30 35
13 10 11 12 14 17 14 32 29 25 27 31 34 38 50 53 49 54 52 55 54 48 46 44 32 33 33 35 38 39 35 39
19 12 10 7 12 12 10 25 30 29 26 37 36 37 42 54 53 53 49 53 50 52 53 50 37 34 27 32 38 43 40 40
21 16 12 7 9 12 11 11 34 35 32 38 39 33 29 42 48 54 49 53 56 56 46 41 41 38 41 42 44 46 50 54
26 21 14 11 7 10 11 11 8 36 38 45 45 38 33 29 35 40 41 50 57 47 48 48 50 48 47 52 55 54 55 54
28 25 20 14 8 8 12 10 10 12 42 46 50 47 42 40 36 39 43 45 49 52 50 50 51 55 62 57 52 50 49 52
33 29 21 17 13 11 10 9 8 8 8 47 51 56 50 51 46 44 44 50 52 56 58 58 62 57 61 58 58 56 56 57
37 33 25 22 16 11 7 6 7 8 8 7 21 56 58 60 55 52 49 49 53 52 53 57 58 59 61 61 63 64 65 67
40 36 29 26 21 17 14 12 11 11 12 10 8 7 34 61 59 60 60 57 53 57 59 58 59 60 61 64 65 66 67 71
36 35 33 30 26 23 22 16 16 13 10 12 12 12 12 12 24 44 60 55 52 59 63 62 64 66 67 70 70 72 73 73
34 33 32 31 29 23 17 15 15 21 16 12 10 16 19 17 16 16 21 29 37 45 48 50 53 56 58 58 57 57 56 57
34 32 33 31 30 27 24 23 24 21 18 19 15 15 16 19 20 20 19 20 23 25 27 30 33 37 41 45 48 50 51 51
34 33 32 32 32 32 29 28 29 28 28 27 27 22 22 24 23 25 24 25 25 26 27 29 32 33 33 31 31 31 33 36
38 35 32 32 32 33 33 35 35 32 30 30 28 28 28 28 28 29 27 28 29 31 32 33 34 37 39 38 39 38 37 36
43 42 41 39 38 36 37 35 35 38 39 36 35 31 31 33 33 34 35 37 38 39 41 42 42 44 45 46 46 46 47 47
46 46 46 46 45 44 41 41 41 41 42 43 42 41 40 38 36 39 40 42 43 44 43 44 46 46 46 48 49 50 52 53
46 48 48 46 47 47 48 46 46 46 46 46 46 46 47 46 46 45 46 45 46 48 52 52 51 53 53 54 54 53 51 53
Wind_Direction
254 282 295 308 303 257 230 243 252 221 213 223 220 209 198 197 204 209 214 218 232 240 246 262 246 263 261 258 249 232 223 222
247 275 300 311 311 287 231 233 243 234 230 222 211 207 206 207 207 215 219 224 228 234 253 252 250 267 247 240 227 234 225 228
242 270 295 316 321 297 239 223 236 240 231 225 208 202 208 211 214 215 216 225 231 238 252 257 254 243 231 232 228 229 240 232
229 255 292 325 326 330 263 223 233 239 233 221 212 212 213 216 220 221 227 237 239 245 249 259 258 242 239 247 243 246 250 251
229 246 266 316 346 346 317 236 228 234 245 225 211 212 220 219 223 226 226 232 242 245 249 253 251 249 250 255 253 253 253 259
227 233 252 276 326 347 339 301 236 231 234 213 203 213 222 228 226 226 235 239 239 243 242 248 252 249 252 256 250 255 256 264
224 230 236 259 307 321 339 349 324 227 230 217 215 215 221 229 227 230 234 233 239 233 242 252 253 252 255 255 255 263 263 262
223 231 231 245 272 318 314 337 3 233 223 227 226 226 224 229 230 233 233 233 235 240 249 253 257 256 257 259 261 258 261 263
220 226 225 237 261 291 305 315 329 351 260 227 231 236 240 235 232 233 234 237 245 248 253 257 257 258 257 259 258 264 270 270
220 223 228 239 250 272 285 298 320 333 319 293 249 239 237 240 242 244 248 251 245 248 249 251 252 258 260 261 265 266 267 270
224 227 232 243 253 261 258 272 276 309 305 306 301 284 243 240 245 250 250 250 248 251 253 256 258 263 263 264 264 266 266 267
226 235 235 239 248 259 261 265 264 270 284 283 300 297 286 265 252 252 252 257 259 258 260 256 259 261 261 263 265 267 267 268
223 235 236 237 241 248 242 259 264 259 277 265 273 292 289 283 275 261 255 256 258 258 259 262 264 265 266 267 269 272 270 269
226 235 238 240 239 246 252 255 264 257 242 242 258 271 274 282 283 289 285 274 268 266 265 265 265 266 266 267 269 271 271 270
224 227 234 235 236 242 250 253 254 251 257 260 269 268 271 267 274 280 278 278 280 285 288 289 285 278 271 270 272 276 278 276
228 231 233 241 246 248 253 257 255 254 256 260 269 274 274 272 271 262 266 272 275 279 281 282 281 279 280 280 280 282 282 279
226 233 239 241 247 252 254 251 249 253 260 262 265 269 274 273 267 266 269 271 272 274 277 279 279 277 278 279 281 281 280 280
236 236 240 244 246 250 252 251 252 254 258 264 266 269 273 268 272 273 272 273 272 272 273 281 283 283 283 283 280 281 281 283
239 239 238 240 245 248 249 251 254 256 259 262 263 267 270 273 278 275 272 273 275 278 278 279 280 282 285 286 285 289 287 285
Height
10617 10617 10614 10609 10603 10601 10604 10607 10609 10611 10616 10620 10625 10630 10639 10646 10652 10658 10663 10668 10671 10673 10678 10680 10684 10683 10686 10689 10692 10694 10698 10700
10611 10611 10609 10605 10599 10596 10599 10602 10604 10608 10611 10616 10622 10628 10635 10641 10647 10653 10658 10663 10664 10668 10672 10676 10679 10679 10683 10688 10688 10693 10695 10698
10605 10606 10605 10602 10596 10592 10593 10597 10599 10602 10606 10612 10618 10623 10628 10634 10640 10646 10651 10654 10659 10664 10667 10670 10674 10676 10678 10681 10685 10687 10689 10692
10599 10601 10601 10600 10595 10589 10586 10593 10596 10598 10601 10606 10613 10619 10624 10630 10636 10640 10645 10650 10655 10659 10662 10664 10667 10671 10673 10676 10678 10680 10681 10683
10594 10596 10597 10597 10594 10590 10586 10588 10592 10594 10597 10603 10609 10614 10618 10624 10631 10636 10639 10645 10649 10651 10654 10658 10661 10664 10665 10667 10669 10672 10674 10674
10589 10592 10592 10593 10591 10589 10587 10584 10585 10589 10593 10598 10604 10609 10612 10619 10624 10629 10633 10637 10642 10644 10646 10650 10653 10656 10660 10661 10662 10666 10666 10666
10583 10587 10588 10588 10588 10587 10587 10583 10580 10583 10588 10594 10598 10602 10608 10612 10616 10621 10624 10628 10633 10636 10639 10642 10644 10646 10648 10651 10654 10655 10656 10656
10577 10581 10583 10584 10584 10584 10584 10582 10581 10581 10585 10588 10594 10598 10602 10606 10610 10615 10618 10621 10624 10626 10630 10631 10633 10635 10637 10640 10642 10643 10643 10643
10571 10575 10578 10579 10580 10581 10581 10580 10580 10580 10581 10586 10588 10592 10596 10600 10604 10607 10611 10614 10617 10619 10621 10622 10623 10624 10626 10627 10629 10630 10630 10628
10563 10568 10572 10574 10575 10577 10578 10578 10578 10579 10579 10579 10580 10583 10587 10591 10595 10599 10601 10603 10606 10609 10611 10612 10613 10614 10615 10615 10616 10616 10616 10616
10556 10561 10567 10568 10571 10572 10574 10575 10575 10575 10575 10576 10576 10576 10578 10583 10585 10588 10592 10595 10597 10599 10600 10601 10601 10601 10601 10602 10602 10602 10602 10601
10551 10554 10560 10563 10565 10567 10569 10570 10571 10572 10573 10573 10573 10574 10574 10574 10575 10577 10580 10582 10583 10585 10587 10587 10588 10588 10587 10585 10585 10585 10585 10584
10544 10547 10551 10556 10559 10561 10563 10564 10565 10567 10568 10569 10570 10570 10570 10571 10571 10570 10570 10571 10572 10573 10574 10573 10573 10573 10573 10573 10572 10572 10571 10569
10536 10539 10543 10548 10551 10554 10556 10558 10560 10561 10562 10563 10564 10565 10565 10565 10566 10567 10567 10566 10566 10566 10566 10565 10564 10563 10562 10561 10560 10560 10559 10558
10529 10532 10535 10539 10543 10546 10548 10550 10552 10555 10556 10557 10558 10559 10560 10560 10560 10561 10561 10561 10560 10559 10559 10558 10558 10557 10555 10553 10552 10550 10549 10548
10522 10525 10528 10531 10534 10537 10540 10541 10543 10544 10546 10548 10552 10552 10552 10552 10552 10552 10552 10551 10552 10552 10551 10550 10550 10548 10546 10545 10545 10543 10542 10540
10512 10516 10520 10525 10526 10528 10530 10531 10534 10534 10535 10539 10542 10544 10543 10542 10542 10542 10543 10543 10542 10542 10541 10540 10538 10536 10535 10534 10533 10532 10531 10529
10503 10508 10510 10513 10516 10518 10520 10521 10523 10526 10526 10528 10530 10531 10532 10533 10533 10532 10532 10532 10531 10529 10529 10528 10526 10523 10521 10521 10522 10522 10521 10518
10489 10493 10498 10503 10506 10507 10510 10512 10513 10515 10516 10517 10518 10519 10518 10519 10520 10522 10521 10521 10519 10518 10516 10515 10514 10509 10509 10508 10508 10510 10507 10504